Miscellaneous Local Product
Issued by NWS Hastings, NE

Home | Current Version | Previous Version | Text Only | Print | Product List | Glossary Off
Versions: 1 2 3 4 5 6 7 8 9 10 11 12 13 14 15 16 17 18 19 20 21 22 23 24 25 26 27 28 29 30 31 32 33 34 35 36 37 38 39 40 41 42 43 44 45 46 47 48 49 50

000
AXUS43 KGID 272202
MISGRI

GID CWA HOURLY WEATHER ROUNDUP
NATIONAL WEATHER SERVICE HASTINGS NE
400 PM CST FRI FEB 27 2015

NOTE: "FAIR" INDICATES FEW OR NO CLOUDS BELOW 12,000 FEET WITH NO
SIGNIFICANT WEATHER AND/OR OBSTRUCTIONS TO VISIBILITY.

...SOUTH CENTRAL NEBRASKA...

CITY           SKY/WX    TMP DP  RH WIND       PRES   REMARKS
GRAND ISLAND   SUNNY     22  -3  33 S9        30.40F WCI  12
HASTINGS       SUNNY     22  -6  29 S9        30.38F WCI  12
KEARNEY        SUNNY     23  -6  28 SE8G17    30.35F WCI  14
ORD            SUNNY     23  -7  26 S12       30.33F WCI  12
YORK           SUNNY     21   0  39 S6        30.43F WCI  14
AURORA         MOSUNNY   23  -3  32 S9        30.40F WCI  13
LEXINGTON      MOSUNNY   24  -2  31 S14G20    30.31S WCI  12
HOLDREGE       SUNNY     21  -6  29 S10       30.34S WCI  10
HEBRON         PTSUNNY   21  -4  33 S7        30.47R WCI  12

...NEBRASKA PANHANDLE...

CITY           SKY/WX    TMP DP  RH WIND       PRES   REMARKS
CHADRON        CLOUDY    25  11  55 S22G28    30.05F WCI  10
ALLIANCE       CLOUDY    20   8  60 S25G32    30.04F WCI   2
SCOTTSBLUFF    CLOUDY    23   8  52 S21G30    30.01F WCI   8
SIDNEY         CLOUDY    18   8  65 S20G28    30.04S WCI   2

...WESTERN AND NORTH CENTRAL NEBRASKA...

CITY           SKY/WX    TMP DP  RH WIND       PRES   REMARKS
VALENTINE      SUNNY     26   1  34 S16       30.20F WCI  14
AINSWORTH      SUNNY     25  -4  28 S17       30.23F WCI  11
ONEILL         SUNNY     25  -4  28 S10       30.33F WCI  15
BROKEN BOW     SUNNY     24  -2  32 S12G21    30.28F WCI  13
IMPERIAL         N/A     20   7  57 S20       30.18F WCI   4
NORTH PLATTE   MOSUNNY   24   2  38 SW17      30.23F WCI  11
MCCOOK         CLOUDY    23   5  46 SE14      30.28F WCI  11

...EASTERN NEBRASKA...

CITY           SKY/WX    TMP DP  RH WIND       PRES   REMARKS
NORFOLK        SUNNY     22   0  38 S9        30.42F WCI  12
TEKAMAH        SUNNY     17   5  59 SE8       30.53F WCI   7
COLUMBUS       SUNNY     19  -2  38 S7        30.46F WCI  10
ALBION         SUNNY     23  -6  28 S12       30.39S WCI  12
OMAHA EPPLEY   MOSUNNY   19   2  47 CALM      30.53F
OFFUTT AFB     SUNNY     20   1  43 S3        30.52F
MILLARD        SUNNY     20   1  42 S5        30.52S WCI  14
LINCOLN        SUNNY     20  -2  38 CALM      30.50F
NEBRASKA CITY  SUNNY     19  -8  29 SE3       30.51F
BEATRICE       CLOUDY    20  -1  40 E5        30.49S WCI  13
FALLS CITY     MOSUNNY   19  -4  36 SE6       30.53F WCI  11

...NORTHERN KANSAS...

CITY           SKY/WX    TMP DP  RH WIND       PRES   REMARKS
GOODLAND       FLURRIES  16   9  74 S23       30.17S WCI  -2
HILL CITY      CLOUDY    20   3  48 SE13      30.36F WCI   7
NORTON         CLOUDY    21  -2  35 S12G17    30.32  WCI   9
PHILLIPSBURG   PTSUNNY   25  -2  30 SE7G16    30.39F WCI  17
HAYS           CLOUDY    19   0  42 SE10G17   30.40S WCI   8
RUSSELL        CLOUDY    20   2  45 SE9       30.41F WCI   9
CONCORDIA      MIX PCPN  19   1  45 SE8       30.47F WCI   9
SALINA         PTSUNNY   23  -1  35 S7        30.49F WCI  15
TOPEKA         PTSUNNY   19   0  43 CALM      30.57R



USA.gov is the U.S. government's official web portal to all federal, state and local government web resources and services.